Regional Weather Roundup
Issued by NWS Upton, NY

Home | Current Version | Previous Version | Text Only | Print | Product List | Glossary On
Versions: 1 2 3 4 5 6 7 8 9 10 11 12 13 14 15 16 17 18 19 20 21 22 23 24 25 26 27 28 29 30 31 32 33 34 35 36 37 38 39 40 41 42 43 44 45 46 47 48
000
ASUS41 KOKX 031904
RWROKX

REGIONAL WEATHER ROUNDUP
NATIONAL WEATHER SERVICE NEW YORK NY
300 PM EDT MON AUG 03 2015

NOTE: "FAIR" INDICATES FEW OR NO CLOUDS BELOW 12,000 FEET WITH NO
SIGNIFICANT WEATHER AND/OR OBSTRUCTIONS TO VISIBILITY.

NYZ071-072-176-178-NJZ106-104-032000-
NEW YORK CITY METRO AREA


CITY           SKY/WX    TMP DP  RH WIND       PRES   REMARKS
CENTRAL PARK   SUNNY     89  60  37 SW9G18    29.81F
LAGUARDIA APRT MOSUNNY   90  58  33 SW18G25   29.78F
KENNEDY INTL   MOSUNNY   88  67  49 S18       29.81F HX  91
NEWARK/LIBERTY MOSUNNY   92  60  34 SW18G26   29.78F HX  91
BRNX BOT. GARD   N/A    N/A N/A N/A SE3       29.78F
TETERBORO      MOSUNNY   92  57  30 SW20G25   29.76F HX  90
$$

NYZ177-179-078>081-032000-
LONG ISLAND NEW YORK

CITY           SKY/WX    TMP DP  RH WIND       PRES   REMARKS
FARMINGDALE    SUNNY     87  66  49 S16       29.82S
ISLIP          MOSUNNY   85  68  56 S15       29.81S
SHIRLEY        SUNNY     85  68  56 S14G24    29.83F
WESTHAMPTON    SUNNY     84  66  54 S14       29.85S
MONTAUK POINT    N/A     83  73  72 VRB7      29.85F
$$

NYZ052-065-067-032000-
HUDSON VALLEY

CITY           SKY/WX    TMP DP  RH WIND       PRES   REMARKS
WHITE PLAINS   MOSUNNY   88  62  41 S9G16     29.79F
NEWBURGH       MOSUNNY   90  57  33 W15G28    29.78F
MONTGOMERY     MOSUNNY   90  61  37 SW17      29.76S HX  90
POUGHKEEPSIE   SUNNY     92  58  31 S10G22    29.74F HX  91
ALBANY         TSTM      80  70  71 NE6       29.70F
$$

NJZ001-105-106-008-010-013-015-019>022-104-032000-
NEW JERSEY

CITY           SKY/WX    TMP DP  RH WIND       PRES   REMARKS
NEWARK/LIBERTY MOSUNNY   92  60  34 SW18G26   29.78F HX  91
TETERBORO      MOSUNNY   92  57  30 SW20G25   29.76F HX  90
CALDWELL       SUNNY     90  59  35 VRB7      29.78F
MORRISTOWN     MOSUNNY   91  59  33 W16G28    29.79F HX  90
SOMERVILLE     MOSUNNY   89  60  37 S8G17     29.77F
SUSSEX         MOSUNNY   87  62  43 S9G18     29.78F
ANDOVER          N/A     85  62  46 SW9G21    29.80F
TRENTON        MOSUNNY   88  61  40 S15G21    29.80F
MILLVILLE      SUNNY     90  61  37 S12G17    29.84F HX  90
ATLANTIC CITY  SUNNY     91  61  36 SW14      29.84F HX  91
WRIGHTSTOWN    SUNNY     89  62  40 SW16      29.79F HX  90
TOMS RIVER       N/A     91  59  33 SW15      29.82F HX  90
BELMAR         MOSUNNY   90  61  37 SW9       29.81F
$$

PAZ047>061-062-071-032000-
EASTERN PENNSYLVANIA

CITY           SKY/WX    TMP DP  RH WIND       PRES   REMARKS
PHILADELPHIA   MOSUNNY   91  60  35 SW15      29.81F HX  90
ALLENTOWN      MOSUNNY   86  64  47 SW13G21   29.80S
SCRANTON       PTSUNNY   86  61  42 W15G23    29.80S
$$

CTZ002-004>006-009-010-012-RIZ004-006-007-MAZ004-011-015-032000-
SOUTHERN NEW ENGLAND
 IN CT

CITY           SKY/WX    TMP DP  RH WIND       PRES   REMARKS
BRADLEY INTL   MOSUNNY   89  60  37 SW16G23   29.76F
HARTFORD       SUNNY     89  60  37 S16G24    29.76F
DANBURY        MOSUNNY   85  62  46 S13G18    29.80F
WTRBRY/OXFORD  MOSUNNY   84  63  48 SW9G21    29.84S
BRIDGEPORT     SUNNY     87  64  46 S12       29.79F
MERIDEN        SUNNY     90  59  35 SW16G24   29.78F
NEW HAVEN      SUNNY     85  64  49 SW8G16    29.80F
CHESTER        NOT AVBL
GROTON         SUNNY     79  69  71 S14       29.81F
WILLIMANTIC    SUNNY     89  57  33 SW16G22   29.80F

 IN RI

CITY           SKY/WX    TMP DP  RH WIND       PRES   REMARKS
PROVIDENCE     MOSUNNY   87  65  47 S16G28    29.81F
BLOCK ISLAND     N/A     82  73  74 SW13      29.86F
WESTERLY       SUNNY     83  66  56 S15       29.83F

 IN MA

CITY           SKY/WX    TMP DP  RH WIND       PRES   REMARKS
BOSTON         MOSUNNY   90  58  33 SW18      29.77F
WORCESTER      MOSUNNY   84  59  42 S13       29.83F
WESTFIELD      MOSUNNY   89  61  38 SW16G28   29.75F
PROVINCETOWN   SUNNY     84  63  48 SW17      29.83F
NANTUCKET      MOSUNNY   78  69  73 S14       29.86F
$$

ANZ330-335-338-340-345-350-353-355-032000-
COASTAL MARINE OBSERVATIONS


STATION/POSITION TIME  SKY/WX   TEMP    WIND        PRES    VSBY  WAVE
                                AIR SEA DIR/SP/G                  HT/PER
                 (UTC)          (F)     (DEG/KT/KT) (MB)    (MI)  (FT/S)
NY HARB ENTRANCE 1750            78 72  190/ 14/ 17 1009.4          3/ 8
4S FIRE IS       NOT AVBL
20S FIRE ISLAND  1750            77 76  200/ 12/ 14 1010.3          3/ 8
GREAT SOUTH BAY  1830            78 81  230/ 14/ 17   N/A
23SW MTP         1850            77 76  220/ 10/ 12 1010.5          3/ 8
HUDSON CANYON    NOT AVBL
KINGS POINT      1800            84 71  230/ 14/ 19 1008.4
EXECUTION ROCKS  1800            79     190/  4/  6   N/A
CENTRAL LI SOUND NOT AVBL
EASTERN LI SOUND 1800            75 69  170/  8/ 12   N/A
ROBBINS REEF     1800            85     200/ 15/ 18 1007.8
$$


>>>>>>>>>>>>>>>>>>>>>>>>>>>> KEY <<<<<<<<<<<<<<<<<<<<<<<<<<<
>                                                          <
>     SKY/WX - SKY CONDITION/PRESENT WEATHER               <
>     TMP    - TEMPERATURE IN FAHRENHEIT                   <
>     DP     - DEWPOINT IN FAHRENHEIT                      <
>     RH     - RELATIVE HUMIDITY IN PERCENT                <
>     WIND   - DIRECTION AND SPEED IN MPH                  <
>     PRES   - MEAN SEA LEVEL PRESSURE IN INCHES OF HG     <
>     WCI    - WIND CHILL INDEX                            <
>     VSB    - VISIBILITY IN MILES                         <
>     HX     - HEAT INDEX                                  <
>     TC     - TEMPERATURE IN CELSIUS                      <
>     VRB    - VARIABLE WIND DIRECTION                     <
>                                                          <
>>>>>>>>>>>>>>>>>>>>>>>>>>>> KEY <<<<<<<<<<<<<<<<<<<<<<<<<<<




USA.gov is the U.S. government's official web portal to all federal, state and local government web resources and services.